Location: Starhoo Observatory
(41.8578°N, 70.9669°W)
Time: 04:48:19
(UTC-05:00)

ISS - Visible Passes

Search period start: 12 February 2016 00:00
Search period end: 22 February 2016 00:00
Orbit: 398 x 408 km, 51.6° (Epoch: 11 February)

Date Brightness Start Highest point End Pass type
(mag) Time Alt. Az. Time Alt. Az. Time Alt. Az.
12 Feb -1.3 18:34:11 10° NNW 18:36:23 17° N 18:36:44 16° NNE visible
13 Feb -1.1 17:41:23 10° NNW 17:43:22 15° N 17:45:21 10° NE visible
13 Feb -1.0 19:17:36 10° NW 19:18:51 19° NNW 19:18:51 19° NNW visible
14 Feb -1.8 18:24:58 10° NW 18:27:37 22° NNE 18:28:22 20° NE visible
15 Feb -2.2 19:08:18 10° NW 19:10:33 38° NNW 19:10:33 38° NNW visible
16 Feb -2.5 18:15:34 10° NW 18:18:36 35° NNE 18:20:09 22° ENE visible
16 Feb -0.1 19:52:06 10° WNW 19:52:48 15° W 19:52:48 15° W visible
17 Feb -3.1 18:59:01 10° WNW 19:02:13 60° SW 19:02:31 57° S visible
18 Feb -3.4 18:06:06 10° NW 18:09:20 70° NNE 18:12:21 11° ESE visible
18 Feb -0.3 19:43:43 10° W 19:45:01 13° WSW 19:45:01 13° WSW visible
19 Feb -1.3 18:49:55 10° WNW 18:52:39 25° SW 18:55:01 12° S visible
20 Feb -2.4 17:56:40 10° WNW 17:59:49 49° SW 18:02:57 10° SE visible
21 Feb -0.1 18:41:50 10° WSW 18:42:50 11° SW 18:43:50 10° SSW visible
